Regional Weather Roundup
Issued by NWS

Home | Current Version | Previous Version | Text Only | Print | Product List | Glossary Off
Versions: 1 2 3 4 5 6 7 8 9 10 11 12 13 14 15 16 17 18 19 20 21 22 23 24 25 26 27 28 29 30 31 32 33 34 35 36 37 38 39 40 41 42 43 44 45 46 47 48 49 50

920
ASUS43 KMPX 220201
RWRMN
WEATHER ROUNDUP FOR MINNESOTA
NATIONAL WEATHER SERVICE TWIN CITIES/CHANHASSEN MN
800 PM CST TUE FEB 21 2017


NOTE: "FAIR" INDICATES FEW OR NO CLOUDS BELOW 12,000 FEET WITH NO
SIGNIFICANT WEATHER AND/OR OBSTRUCTIONS TO VISIBILITY. N/A MEANS
CURRENT SKY AND/OR WEATHER CONDITIONS ARE NOT AVAILABLE.

MNZ060>063-068>070-220300-
   Twin Cities Metro

CITY           SKY/WX    TMP DP  RH WIND       PRES   REMARKS
TWIN CITIES    PTCLDY    52  44  74 SE5       29.70F
ST PAUL        MOCLDY    49  44  83 SE12      29.71F
CRYSTAL        PTCLDY    53  42  66 S5        29.68F
BLAINE         PTCLDY    54  45  71 S6        29.69F
LAKEVILLE      CLEAR     48  45  87 S6        29.70F
EDEN PRAIRIE   CLEAR     51  44  77 S7        29.69S
SOUTH ST PAUL  PTCLDY    52  44  75 S3        29.71S
LAKE ELMO      FAIR      50  45  81 S9        29.71F
$$
MNZ001>005-007-008-013>017-022>024-027-028-220300-
   Northwest Minnesota

CITY           SKY/WX    TMP DP  RH WIND       PRES   REMARKS
BEMIDJI        CLOUDY    39  35  86 W9        29.67R
HALLOCK        CLOUDY    34  32  93 NW5       29.70R FOG     WCI  30
ROSEAU         CLOUDY    34  28  80 NE5       29.68S WCI  30
WARROAD        CLOUDY    30  28  93 CALM      29.69S FOG
THIEF RVR FALL CLOUDY    34  33  96 SW6       29.70R WCI  29
CROOKSTON      MIX PCPN  34  34 100 CALM      29.71S
FOSSTON        CLOUDY    36  34  93 SW3       29.70S
DETROIT LAKES  CLOUDY    37  36  93 CALM      29.70R
MOORHEAD       CLOUDY    41  37  87 W3        29.70S
PARK RAPIDS    CLOUDY    38  33  82 W5        29.67R
MAHNOMEN       DRIZZLE   38  37  97 CALM      29.69F
$$
MNZ006-009>011-018-025>026-220300-
   North Central Minnesota

CITY           SKY/WX    TMP DP  RH WIND       PRES   REMARKS
BAUDETTE       CLOUDY    34  31  88 N6        29.67R WCI  29
FLAG ISLAND    CLOUDY    34  30  86 N6        29.69R WCI  29
INTL FALLS     CLOUDY    33  31  92 CALM      29.65F
WASKISH        CLOUDY    34  32  93 W3        29.66S
BIG FORK       CLOUDY    37  32  81 CALM      29.65F
LONGVILLE      CLOUDY    37  34  87 CALM      29.66S
GRAND RAPIDS   CLOUDY    38  35  89 CALM      29.65F
CRANE LAKE     CLOUDY    28  28 100 CALM      29.68F
ORR            CLOUDY    39  30  70 CALM      29.63F
COOK           CLOUDY    36  32  87 CALM      29.65F
WALKER         CLOUDY    38  34  85 SW6       29.67R
$$
MNZ012-019>021-037-220300-
   Northeast Minnesota

CITY           SKY/WX    TMP DP  RH WIND       PRES   REMARKS
DULUTH         PTCLDY    41  34  76 CALM      29.66F
HIBBING        CLOUDY    33  33 100 CALM      29.65F
EVELETH        CLOUDY    38  33  81 CALM      29.66F
DULUTH HARBOR  CLOUDY    36  34  93 CALM      29.69F
TWO HARBORS    CLOUDY    39  34  81 CALM      29.66F
SILVER BAY     MOCLDY    36  34  93 CALM      29.67S
GRAND MARAIS     N/A     34  32  92 CALM      29.71R
G MARAIS ARPRT CLOUDY    32  27  80 CALM      29.68F
$$
MNZ029>031-032-039>041-046>048-054>057-064-220300-
   West Central Minnesota

CITY           SKY/WX    TMP DP  RH WIND       PRES   REMARKS
FERGUS FALLS   CLOUDY    45  41  87 CALM      29.72F
WHEATON        PTCLDY    43  39  87 CALM      29.72R
MORRIS         CLEAR     45  43  93 CALM      29.68S
ALEXANDRIA     MOCLDY    41  39  93 SW7       29.70R
ELBOW LAKE     FAIR      42  41  97 CALM      29.69S
WADENA         CLOUDY    41  37  87 W6        29.68R
GLENWOOD       PTCLDY    45  39  81 W7        29.70R
APPLETON       CLEAR     45  39  81 CALM      29.69R
BENSON         CLEAR     45  39  81 CALM      29.71R HAZE
ORTONVILLE     CLEAR     45  39  81 CALM      29.68S
MADISON        CLEAR     48  45  87 CALM      29.68F
WILLMAR        FAIR      48  46  93 CALM      29.69F
$$
MNZ033>034-036-042>043-049>051-058-059-220300-
   Central Minnesota

CITY           SKY/WX    TMP DP  RH WIND       PRES   REMARKS
ST CLOUD       CLOUDY    46  44  93 CALM      29.68F
SAUK CENTRE    FAIR      42  41  97 CALM      29.69S
PAYNESVILLE    PTCLDY    45  41  88 CALM      29.68F
AITKIN         PTCLDY    39  36  87 CALM      29.65S
PINE RIVER     MOCLDY    37  36  93 CALM      29.70S
BRAINERD       PTCLDY    41  37  86 W5        29.67S
STAPLES        CLOUDY    41  37  87 SW3       29.67F
LONG PRAIRIE   FAIR      41  37  87 S3        29.68S
LITTLE FALLS   CLOUDY    41  37  87 CALM      29.68F
LITCHFIELD     MOCLDY    46  45  93 CALM      29.69F
BUFFALO        CLOUDY    47  43  86 CALM      29.70F
MAPLE LAKE     CLOUDY    46  44  93 CALM      29.70F
HUTCHINSON     CLOUDY    48  47  95 CALM      29.70F
$$
MNZ037-044-045-052-053-220300-
   East Central Minnesota

CITY           SKY/WX    TMP DP  RH WIND       PRES   REMARKS
PRINCETON      CLOUDY    48  43  81 CALM      29.69F
MORA           CLOUDY    41  37  87 CALM      29.70S
CAMBRIDGE      PTCLDY    46  39  76 CALM      29.68R
RUSH CITY      PTCLDY    46  41  81 S5        29.69S
MOOSE LAKE     CLOUDY    37  34  87 CALM      29.66F
HINCKLEY       FAIR      41  39  93 CALM      29.67S
CLOQUET        CLOUDY    41  36  81 CALM      29.66F
MCGREGOR       PTCLDY    37  36  93 CALM      29.66F
$$
MNZ071>073-080-081-089-090-097-098-220300-
   Southwest Minnesota

CITY           SKY/WX    TMP DP  RH WIND       PRES   REMARKS
MONTEVIDEO     CLEAR     46  41  81 CALM      29.70F
GRANITE FALLS  CLEAR     47  44  91 CALM      29.70S
CANBY          CLEAR     45  40  83 CALM      29.70R
MARSHALL       CLEAR     46  40  79 CALM      29.70R
REDWOOD FALLS  CLEAR     48  41  76 SW3       29.69S
OLIVIA         PTCLDY    50  45  81 CALM      29.69S
PIPESTONE      CLEAR     50  37  62 CALM      29.70S
WINDOM         CLEAR     48  45  87 CALM      29.71S
WORTHINGTON    CLEAR     51  43  74 SW8       29.71F
JACKSON        CLEAR     48  41  76 S7        29.72F
TRACY          CLEAR     50  43  77 SW10      29.70S
SLAYTON        CLEAR     47  40  77 CALM      29.71F
$$
MNZ065>067-074>077-082>085-091>093-220300-
   South Central Minnesota

CITY           SKY/WX    TMP DP  RH WIND       PRES   REMARKS
MANKATO          N/A     51  45  79 S7        29.72S
NEW ULM        CLEAR     48  43  81 CALM      29.70F
ST JAMES       CLEAR     50  43  76 CALM      29.72S
FAIRMONT       CLEAR     50  44  80 S7        29.73S
GLENCOE        PTCLDY    51  49  94 CALM      29.69S
FARIBAULT      PTCLDY    48  45  87 S7        29.73F
OWATONNA       CLEAR     50  45  81 S12       29.73F
WASECA         CLEAR     50  45  81 S10       29.74S
ALBERT LEA     CLEAR     54  45  71 S13       29.73F
$$
MNZ078>079-086>088-094>096-220300-
   Southeast Minnesota

CITY           SKY/WX    TMP DP  RH WIND       PRES   REMARKS
ROCHESTER      CLEAR     47  42  83 S14       29.76F
RED WING       PTCLDY    54  41  62 S3        29.73F
STANTON        CLEAR     50  45  81 S7        29.71F
DODGE CENTER   CLEAR     48  43  81 S14       29.74F
WINONA         CLOUDY    54  41  62 CALM      29.78F
AUSTIN         CLEAR     46  43  87 S9        29.75F
PRESTON        CLEAR     48  40  75 S13       29.78S
$$
ABBREVIATIONS USED IN REMARKS
   TC - TEMPERATURES IN CELSIUS
  WCI - WIND CHILL INDEX
   HX - HEAT INDEX
  VSB - VISIBILITY
$$




USA.gov is the U.S. government's official web portal to all federal, state and local government web resources and services.